Weather History for Cleveland Burke, OH

Change the Weather History Date:

Sunday, February 17, 2013

  Actual Average Record
Temperature  
Mean Temperature 19 °F -  
Max Temperature 21 °F 37 °F 63 °F (2006)
Min Temperature 17 °F 26 °F -6 °F (2014)
Degree Days  
Heating Degree Days 46    
Moisture  
Dew Point 13 °F    
Average Humidity 77    
Maximum Humidity 86    
Minimum Humidity 59    
Precipitation  
Precipitation 0.00 in - - ()
Sea Level Pressure  
Sea Level Pressure 30.09 in    
Wind  
Wind Speed 16 mph (NW)    
Max Wind Speed 20 mph    
Max Gust Speed 22 mph    
Visibility 8 miles    
Events Snow    
Averages and records for this station are not official NWS values.
T = Trace of Precipitation, MM = Missing Value Source: NWS Daily Summary

Daily Weather History Graph

Daily Weather History Graph

Search for Another Location

Airport:

Trip Planner

Search our weather history database for the weather conditions in past years. The results will help you decide how hot, cold, wet, or windy it might be!

Date:

Astronomy

Feb. 17, 2013 Rise Set
Actual Time 7:18 AM EST 6:03 PM EST
Civil Twilight 6:50 AM EST 6:31 PM EST
Nautical Twilight 6:18 AM EST 7:03 PM EST
Astronomical Twilight 5:46 AM EST 7:36 PM EST
Moon 11:05 AM EST (2/17) 1:03 AM EST (2/17)
Length of Visible Light 11h 40m
Length of Day
10h 44m
Waxing Crescent, 49% of the Moon is Illuminated
Feb 17
Waxing Crescent
Feb 17
First Quarter
Feb 25
Full
Mar 4
Last Quarter
Mar 11
New

Hourly Weather History & Observations

Time (EST) Temp. Windchill Dew Point Humidity Pressure Visibility Wind Dir Wind Speed Gust Speed Precip Events Conditions
12:09 AM 21.2 °F 6.4 °F 17.6 °F 86% 29.97 in 10.0 mi NW 18.4 mph - N/A   Mostly Cloudy
12:53 AM 21.0 °F 5.7 °F 16.0 °F 81% 30.00 in 9.0 mi NW 19.6 mph - 0.00 in   Overcast
1:53 AM 21.0 °F 6.2 °F 16.0 °F 81% 30.01 in 10.0 mi WNW 18.4 mph - N/A   Overcast
2:53 AM 21.0 °F 6.2 °F 14.0 °F 74% 30.01 in 10.0 mi NNW 18.4 mph - 0.00 in   Overcast
3:04 AM 21.2 °F 6.4 °F 15.8 °F 80% 29.99 in 10.0 mi NW 18.4 mph - N/A   Overcast
3:14 AM 21.2 °F 6.0 °F 17.6 °F 86% 29.99 in 2.5 mi NW 19.6 mph - 0.00 in Snow Light Snow
3:27 AM 19.4 °F 4.5 °F 15.8 °F 86% 30.00 in 7.0 mi NW 17.3 mph - 0.00 in Snow Light Snow
3:35 AM 19.4 °F 4.5 °F 15.8 °F 86% 30.00 in 8.0 mi NW 17.3 mph - 0.00 in Snow Light Snow
3:53 AM 19.9 °F 6.2 °F 14.0 °F 78% 30.03 in 10.0 mi WNW 15.0 mph - 0.00 in   Overcast
4:08 AM 19.4 °F 4.5 °F 15.8 °F 86% 30.00 in 10.0 mi NW 17.3 mph 21.9 mph N/A   Overcast
4:17 AM 19.4 °F 5.0 °F 15.8 °F 86% 30.01 in 10.0 mi WNW 16.1 mph - N/A   Overcast
4:53 AM 19.9 °F 5.2 °F 16.0 °F 85% 30.04 in 6.0 mi WNW 17.3 mph - N/A   Overcast
4:59 AM 19.4 °F 4.5 °F 15.8 °F 86% 30.02 in 2.5 mi WNW 17.3 mph - 0.00 in Snow Light Snow
5:08 AM 19.4 °F 4.1 °F 15.8 °F 86% 30.02 in 1.5 mi NW 18.4 mph - 0.00 in Snow Light Snow
5:15 AM 19.4 °F 5.5 °F 15.8 °F 86% 30.02 in 3.0 mi NW 15.0 mph - 0.00 in Snow Light Snow
5:40 AM 19.4 °F 5.5 °F 15.8 °F 86% 30.02 in 6.0 mi NW 15.0 mph - 0.00 in Snow Light Snow
5:53 AM 19.9 °F 6.2 °F 15.1 °F 81% 30.05 in 9.0 mi NW 15.0 mph - 0.00 in   Overcast
6:17 AM 19.4 °F 6.0 °F 15.8 °F 86% 30.03 in 3.0 mi WNW 13.8 mph - 0.00 in Snow Light Snow
6:35 AM 19.4 °F 7.9 °F 15.8 °F 86% 30.04 in 2.5 mi WNW 10.4 mph - 0.00 in Snow Light Snow
6:43 AM 19.4 °F 7.9 °F 15.8 °F 86% 30.04 in 1.5 mi North 10.4 mph - 0.00 in Snow Light Snow
6:46 AM 19.4 °F 7.2 °F 15.8 °F 86% 30.04 in 2.0 mi North 11.5 mph - 0.00 in Snow Light Snow
6:49 AM 19.4 °F 7.9 °F 15.8 °F 86% 30.04 in 3.0 mi North 10.4 mph - 0.00 in Snow Light Snow
6:53 AM 19.9 °F 7.9 °F 15.1 °F 81% 30.07 in 5.0 mi North 11.5 mph - 0.00 in Snow Light Snow
7:39 AM 19.4 °F 5.0 °F 14.0 °F 80% 30.06 in 9.0 mi North 16.1 mph - 0.00 in Snow Light Snow
7:53 AM 19.0 °F 6.1 °F 14.0 °F 81% 30.10 in 10.0 mi North 12.7 mph - 0.00 in   Mostly Cloudy
8:53 AM 18.0 °F 4.8 °F 12.9 °F 81% 30.13 in 10.0 mi NNW 12.7 mph - N/A   Mostly Cloudy
9:07 AM 17.6 °F 3.7 °F 12.2 °F 79% 30.10 in 10.0 mi NNW 13.8 mph - N/A   Overcast
9:53 AM 19.0 °F 5.6 °F 12.0 °F 74% 30.15 in 10.0 mi NNW 13.8 mph - N/A   Mostly Cloudy
10:53 AM 19.0 °F 6.1 °F 12.9 °F 77% 30.17 in 10.0 mi NW 12.7 mph - N/A   Mostly Cloudy
11:53 AM 19.0 °F 5.0 °F 10.0 °F 68% 30.18 in 10.0 mi WNW 15.0 mph - N/A   Mostly Cloudy
12:53 PM 19.9 °F 5.2 °F 8.1 °F 60% 30.19 in 10.0 mi WNW 17.3 mph - N/A   Mostly Cloudy
1:00 PM 19.4 °F 4.5 °F 8.6 °F 63% 30.16 in 10.0 mi WNW 17.3 mph - N/A   Mostly Cloudy
1:53 PM 21.0 °F 7.6 °F 10.9 °F 65% 30.19 in 10.0 mi WNW 15.0 mph - N/A   Mostly Cloudy
2:53 PM 21.0 °F 8.1 °F 10.9 °F 65% 30.19 in 10.0 mi WNW 13.8 mph - N/A   Mostly Cloudy
3:53 PM 19.9 °F 7.9 °F 10.0 °F 65% 30.19 in 10.0 mi WNW 11.5 mph - N/A   Overcast
4:53 PM 21.0 °F 7.1 °F 10.0 °F 63% 30.20 in 10.0 mi WNW 16.1 mph - N/A   Mostly Cloudy
5:53 PM 19.0 °F 6.8 °F 9.0 °F 65% 30.22 in 10.0 mi WNW 11.5 mph - N/A   Clear
6:53 PM 19.0 °F 9.0 °F 7.0 °F 59% 30.23 in 10.0 mi NNW 8.1 mph - N/A   Clear
7:53 PM 19.9 °F 12.1 °F 10.0 °F 65% 30.24 in 10.0 mi NW 5.8 mph - N/A   Mostly Cloudy
8:53 PM 19.9 °F 11.1 °F 9.0 °F 62% 30.25 in 10.0 mi NW 6.9 mph - N/A   Clear
9:53 PM 19.9 °F 12.1 °F 9.0 °F 62% 30.26 in 10.0 mi NW 5.8 mph - N/A   Clear
10:53 PM 17.1 °F 11.7 °F 7.0 °F 65% 30.27 in 10.0 mi SSW 3.5 mph - N/A   Clear